Regional Weather Roundup
Issued by NWS Upton, NY

Current Version | Previous Version | Graphics & Text | Print | Product List | Glossary Off
Versions: 1 2 3 4 5 6 7 8 9 10 11 12 13 14 15 16 17 18 19 20 21 22 23 24 25 26 27

000
ASUS41 KOKX 270109
RWROKX

REGIONAL WEATHER ROUNDUP
NATIONAL WEATHER SERVICE NEW YORK NY
900 PM EDT WED APR 26 2017

NOTE: "FAIR" INDICATES FEW OR NO CLOUDS BELOW 12,000 FEET WITH NO
SIGNIFICANT WEATHER AND/OR OBSTRUCTIONS TO VISIBILITY.

NYZ071-072-176-178-NJZ106-104-270200-
NEW YORK CITY METRO AREA

CITY           SKY/WX    TMP DP  RH WIND       PRES   REMARKS
Central Park   CLOUDY    59  58  96 CALM      29.83R FOG
Wall St Helipt CLOUDY    59  57  94 CALM      29.82R
Bronx Bot Gard   N/A     57  55  94 SW1       29.82R
LaGuardia APRT CLOUDY    61  57  87 NE5       29.80S FOG
Kennedy INTL   CLOUDY    60  58  92 N5        29.82R
Breezy Point     N/A     55 N/A N/A MISG        N/A
Newark/Liberty CLOUDY    60  58  92 SE3       29.81R
Teterboro      CLOUDY    61  58  90 CALM      29.80R FOG
$$

NYZ177-179-078>081-270200-
LONG ISLAND NEW YORK

CITY           SKY/WX    TMP DP  RH WIND       PRES   REMARKS
Jones Beach      N/A     52 N/A N/A S3          N/A
Matinecock PT    N/A     55 N/A N/A SE5         N/A
Farmingdale    CLOUDY    61  57  87 NE5       29.82R
MacArthur/ISP  CLOUDY    60  57  89 CALM      29.81R
Shirley        CLOUDY    59  59 100 NW3       29.83R FOG
Mt Sinai Harb    N/A    N/A N/A N/A MISG        N/A
Westhampton    CLOUDY    54  52  93 E3        29.84R FOG
East Hampton   FOG       53  53  99 CALM      29.82R VSB 3/4
Montauk        NOT AVBL
$$

NYZ052-065-067-270200-
HUDSON VALLEY

CITY           SKY/WX    TMP DP  RH WIND       PRES   REMARKS
White Plains   CLOUDY    59  56  89 CALM      29.81R
Larchmont Harb   N/A     55 N/A N/A E6          N/A
Croton O-T Hud   N/A     57 N/A N/A MISG        N/A
Newburgh       CLOUDY    59  59 100 CALM      29.83R FOG
Montgomery     CLOUDY    57  55  93 CALM      29.81R
Poughkeepsie   CLOUDY    59  56  89 CALM      29.81R
Albany         CLOUDY    66  57  72 S8        29.80R
$$

NJZ001-105-106-008-010-013-015-019>022-104-270200-
NEW JERSEY

CITY           SKY/WX    TMP DP  RH WIND       PRES   REMARKS
Newark/Liberty CLOUDY    60  58  92 SE3       29.81R
Teterboro      CLOUDY    61  58  90 CALM      29.80R FOG
Caldwell       CLOUDY    60  57  89 CALM      29.81R
Somerville     CLOUDY    61  58  90 CALM      29.80R
Linden         CLOUDY    60  57  90 CALM      29.82R
Sussex         MOCLDY    57  56  96 CALM      29.82R
Andover          N/A     58  55  90 CALM      29.82R
Trenton        CLOUDY    62  58  86 SE6       29.81R
Millville      CLOUDY    61  61 100 CALM      29.82R
Atlantic City  CLOUDY    58  54  86 S5        29.83R
Wrightstown    LGT RAIN  61  57  88 CALM      29.80R
Toms River     CLOUDY    59  57  93 CALM      29.83R
Belmar         CLOUDY    59  57  93 CALM      29.83R
$$

PAZ047>061-062-071-270200-
EASTERN PENNSYLVANIA

CITY           SKY/WX    TMP DP  RH WIND       PRES   REMARKS
Philadelphia   CLOUDY    62  57  83 S6        29.82R
Allentown      PTCLDY    63  55  75 E5        29.80R
Scranton       PTCLDY    68  56  65 CALM      29.78R
$$

CTZ002-004>006-009-010-012-RIZ004-006-007-MAZ004-011-015-270200-
SOUTHERN NEW ENGLAND
 IN CT

CITY           SKY/WX    TMP DP  RH WIND       PRES   REMARKS
Bradley INTL   DRIZZLE   57  57 100 N5        29.83R FOG
Hartford       CLOUDY    59  57  93 N6        29.83R
Danbury        CLOUDY    59  56  89 E6        29.83R
Wtrbury/Oxford CLOUDY    57  52  82 CALM      29.84R
Bridgeport     CLOUDY    57  54  89 CALM      29.82R
Meriden        LGT RAIN  61  56  83 NW5       29.83R
New Haven      CLOUDY    54  53  97 CALM      29.83R
Chester        CLOUDY    59  59 100 CALM      29.83R FOG
Groton         CLOUDY    55  53  93 CALM      29.81R FOG
Wilimantic     CLOUDY    61  59  93 N3        29.83R FOG

 IN RI

CITY           SKY/WX    TMP DP  RH WIND       PRES   REMARKS
Providence     LGT RAIN  59  59 100 CALM      29.81R
Block Island   CLOUDY    51  51 100 CALM      29.81R FOG
Westerly       CLOUDY    57  56  96 CALM      29.82R
 IN MA

CITY           SKY/WX    TMP DP  RH WIND       PRES   REMARKS
Boston         FOG       49  49 100 NE7       29.82S VSB 1/16
Worcester      FOG       54  52  93 NE6       29.83R VSB 1/2
Westfield      CLOUDY    57  57 100 NE5       29.83R FOG
Provincetown   CLOUDY    54  54 100 SE14      29.83F FOG
Nantucket      FOG       51  49  92 SE9       29.84S VSB 1/2
$$

ANZ330-335-338-340-345-350-353-355-270200-
COASTAL MARINE OBSERVATIONS


STATION/POSITION TIME  SKY/WX   TEMP    WIND        PRES    VSBY  WAVE
                                AIR SEA DIR/SP/G                  HT/PER
                 (UTC)          (F)     (DEG/KT/KT) (MB)    (MI)  (FT/S)
NY HARB ENTRANCE 2350            51 49  230/  2/  4 1009.2          7/10
20 S FIRE ISLAND 0050            49 49   50/  2/  4 1009.3          8/12
GREAT SOUTH BAY  0030            54 57  250/  2/  4   N/A
23 SSW MONTAUK P 2350            47 46              1009.1          9/10
15 E BARNEGAT LI 0030               51                N/A           8/11
HUDSON CANYON    2350            53 51  200/  2/  4 1008.9          8/11
KINGS POINT      0030            57 49     CALM     1009.1
EXECUTION ROCKS  NOT AVBL
CENTRAL LI SOUND 0015            49     330/  4/  4   N/A           1
EASTERN LI SOUND NOT AVBL
ROBBINS REEF     0030            59      90/  6/  6 1009.3
$$


>>>>>>>>>>>>>>>>>>>>>>>>>>>> KEY <<<<<<<<<<<<<<<<<<<<<<<<<<<
>                                                          <
>     SKY/WX - Sky Condition/Present Weather               <
>     TMP    - Temperature in Fahrenheit                   <
>     DP     - Dew Point in Fahrenheit                     <
>     RH     - Relative Humidity in Percent                <
>     WIND   - Direction (from) and Speed in MPH           <
>     PRES   - Mean Sea Level Pressure (inches of Hg)      <
>     WCI    - Wind Chill Index                            <
>     VSB    - VISIBILITY IN MILES                         <
>     HX     - HEAT INDEX                                  <
>     TC     - TEMPERATURE IN CELSIUS                      <
>     VRB    - VARIABLE WIND DIRECTION                     <
>                                                          <
>>>>>>>>>>>>>>>>>>>>>>>>>>>> KEY <<<<<<<<<<<<<<<<<<<<<<<<<<<




USA.gov is the U.S. government's official web portal to all federal, state and local government web resources and services.